This is the latest recevied weather packets stored in our database for station/object KP4FJC. If no packets are shown the sender has not sent any weather packets the latest 10 day(s).
| Time | Temp. | Humidity | Pressure | Rain* | Wind** | Luminosity | Snow |
|---|---|---|---|---|---|---|---|
| 1778108534 | 28.89° C | 70% | 1018 hPa | 0 mm | - | 0 W/m² | - |
| 1778108230 | 28.89° C | 70% | 1017.7 hPa | 0 mm | - | 1 W/m² | - |
| 1778107927 | 28.89° C | 70% | 1017.6 hPa | 0 mm | - | 2 W/m² | - |
| 1778107623 | 28.89° C | 69% | 1017.6 hPa | 0 mm | - | 4 W/m² | - |
| 1778107321 | 28.89° C | 69% | 1017.6 hPa | 0 mm | - | 7 W/m² | - |
| 1778107017 | 29.44° C | 68% | 1017.5 hPa | 0 mm | - | 12 W/m² | - |
| 1778106713 | 29.44° C | 68% | 1017.4 hPa | 0 mm | - | 15 W/m² | - |
| 1778106410 | 29.44° C | 67% | 1017.1 hPa | 0 mm | - | 19 W/m² | - |
| 1778106105 | 30° C | 67% | 1016.9 hPa | 0 mm | - | 23 W/m² | - |
| 1778105804 | 30° C | 67% | 1017.3 hPa | 0 mm | - | 27 W/m² | - |
| 1778105502 | 30° C | 66% | 1017.1 hPa | 0 mm | - | 35 W/m² | - |
| 1778105198 | 30° C | 65% | 1016.9 hPa | 0 mm | - | 45 W/m² | - |
| 1778104893 | 30.56° C | 64% | 1017.1 hPa | 0 mm | - | 56 W/m² | - |
| 1778104590 | 30.56° C | 63% | 1016.8 hPa | 0 mm | - | 69 W/m² | - |
| 1778104285 | 30.56° C | 63% | 1016.6 hPa | 0 mm | - | 79 W/m² | - |
| 1778103982 | 30.56° C | 61% | 1016.5 hPa | 0 mm | - | 90 W/m² | - |
| 1778103680 | 30.56° C | 62% | 1016.6 hPa | 0 mm | - | 99 W/m² | - |
| 1778103378 | 30.56° C | 62% | 1016.6 hPa | 0 mm | - | 110 W/m² | - |
| 1778103075 | 30.56° C | 62% | 1016.6 hPa | 0 mm | - | 122 W/m² | - |
| 1778102772 | 31.11° C | 62% | 1016.6 hPa | 0 mm | - | 137 W/m² | - |
| 1778102467 | 31.11° C | 61% | 1016.6 hPa | 0 mm | - | 152 W/m² | - |
| 1778102163 | 31.67° C | 61% | 1016.5 hPa | 0 mm | - | 170 W/m² | - |
| 1778101860 | 31.67° C | 61% | 1016.3 hPa | 0 mm | - | 190 W/m² | - |
| 1778101556 | 31.11° C | 61% | 1016.5 hPa | 0 mm | - | 209 W/m² | - |
| 1778101253 | 31.67° C | 62% | 1016.4 hPa | 0 mm | - | 229 W/m² | - |
* Rain latest hour (hover to see other rain measurements)
** Current wind speed in m/s (hover to see current wind gust speed)